QPF
0.05 0.03 0.02 0.02 0.02 0.01 0.00 0.00 0.01 0.02 0.02 0.02 0.02 0.03 0.03 0.02 0.02 0.02 0.01 0.01 0.02 0.05 0.05 0.05 0.06 0.04 0.03 0.02 0.02 0.02 0.02 0.02 0.02 0.01 0.01 0.01 0.01 0.01 0.01 0.01 0.01 0.01 0.02
0.06 0.06 0.04 0.03 0.02 0.01 0.01 0.00 0.01 0.02 0.02 0.02 0.02 0.03 0.03 0.02 0.02 0.02 0.02 0.01 0.01 0.03 0.05 0.07 0.08 0.07 0.05 0.05 0.04 0.04 0.03 0.02 0.02 0.02 0.02 0.02 0.01 0.01 0.01 0.01 0.01 0.01 0.01
0.06 0.07 0.06 0.04 0.03 0.01 0.01 0.01 0.01 0.02 0.02 0.02 0.02 0.02 0.03 0.03 0.01 0.02 0.02 0.02 0.01 0.01 0.03 0.05 0.07 0.07 0.05 0.05 0.04 0.03 0.02 0.02 0.02 0.02 0.03 0.03 0.02 0.01 0.01 0.01 0.01 0.01 0.01
0.06 0.07 0.07 0.05 0.03 0.02 0.01 0.01 0.01 0.01 0.02 0.02 0.02 0.02 0.03 0.03 0.02 0.02 0.02 0.02 0.01 0.01 0.02 0.03 0.05 0.06 0.05 0.05 0.04 0.02 0.02 0.02 0.02 0.02 0.02 0.03 0.02 0.01 0.01 0.01 0.01 0.01 0.01
0.07 0.06 0.06 0.06 0.04 0.03 0.02 0.02 0.02 0.02 0.02 0.02 0.02 0.02 0.02 0.03 0.03 0.02 0.02 0.02 0.02 0.02 0.02 0.03 0.04 0.05 0.04 0.03 0.03 0.02 0.02 0.02 0.01 0.02 0.03 0.03 0.02 0.02 0.02 0.01 0.01 0.02 0.02
0.08 0.07 0.08 0.07 0.04 0.03 0.02 0.02 0.03 0.03 0.03 0.03 0.02 0.02 0.02 0.03 0.03 0.03 0.02 0.02 0.02 0.02 0.03 0.03 0.03 0.03 0.03 0.02 0.02 0.03 0.03 0.02 0.01 0.01 0.02 0.03 0.04 0.04 0.03 0.02 0.02 0.02 0.02
0.10 0.09 0.09 0.09 0.06 0.04 0.03 0.02 0.02 0.02 0.03 0.04 0.03 0.02 0.02 0.03 0.03 0.03 0.03 0.02 0.02 0.03 0.04 0.05 0.05 0.04 0.03 0.02 0.02 0.03 0.02 0.02 0.02 0.01 0.01 0.02 0.03 0.05 0.05 0.04 0.02 0.02 0.02
0.10 0.11 0.10 0.09 0.09 0.06 0.04 0.03 0.03 0.02 0.02 0.04 0.03 0.03 0.03 0.03 0.03 0.03 0.03 0.04 0.03 0.03 0.03 0.05 0.06 0.06 0.04 0.03 0.03 0.02 0.02 0.01 0.01 0.02 0.02 0.02 0.02 0.04 0.05 0.05 0.04 0.03 0.02
0.11 0.11 0.12 0.10 0.09 0.08 0.07 0.06 0.04 0.03 0.02 0.03 0.03 0.03 0.03 0.03 0.02 0.02 0.02 0.03 0.04 0.03 0.03 0.03 0.05 0.06 0.05 0.03 0.02 0.01 0.01 0.01 0.01 0.01 0.01 0.02 0.02 0.02 0.03 0.04 0.05 0.04 0.03
0.10 0.12 0.14 0.13 0.11 0.08 0.06 0.07 0.06 0.05 0.05 0.04 0.03 0.02 0.03 0.03 0.02 0.01 0.01 0.02 0.03 0.03 0.03 0.02 0.03 0.05 0.06 0.03 0.02 0.01 0.01 0.01 0.01 0.01 0.01 0.01 0.02 0.02 0.02 0.04 0.05 0.05 0.04
0.11 0.13 0.15 0.16 0.14 0.10 0.06 0.05 0.05 0.06 0.07 0.07 0.07 0.04 0.03 0.03 0.02 0.02 0.02 0.02 0.02 0.03 0.03 0.02 0.02 0.02 0.05 0.04 0.02 0.01 0.01 0.01 0.01 0.01 0.01 0.01 0.01 0.01 0.02 0.03 0.04 0.05 0.05
0.12 0.13 0.16 0.17 0.16 0.13 0.08 0.05 0.04 0.05 0.06 0.07 0.08 0.08 0.06 0.04 0.03 0.02 0.02 0.03 0.03 0.02 0.02 0.02 0.02 0.01 0.03 0.03 0.02 0.01 0.00 0.01 0.01 0.02 0.01 0.01 0.01 0.01 0.01 0.01 0.02 0.03 0.04
0.12 0.13 0.16 0.17 0.17 0.15 0.11 0.07 0.05 0.04 0.04 0.05 0.07 0.07 0.06 0.06 0.05 0.04 0.04 0.04 0.03 0.02 0.01 0.01 0.01 0.02 0.02 0.02 0.02 0.01 0.00 0.00 0.01 0.01 0.01 0.01 0.01 0.01 0.01 0.01 0.01 0.02 0.03
0.10 0.10 0.13 0.17 0.18 0.16 0.13 0.10 0.07 0.05 0.03 0.03 0.04 0.05 0.06 0.06 0.05 0.04 0.03 0.03 0.03 0.03 0.02 0.01 0.01 0.01 0.02 0.02 0.01 0.01 0.00 0.01 0.00 0.00 0.01 0.01 0.01 0.01 0.01 0.01 0.01 0.01 0.02
0.12 0.10 0.10 0.12 0.15 0.16 0.15 0.13 0.09 0.05 0.03 0.02 0.02 0.03 0.03 0.04 0.04 0.03 0.02 0.02 0.02 0.02 0.02 0.01 0.01 0.01 0.01 0.01 0.01 0.01 0.01 0.01 0.00 0.00 0.01 0.01 0.01 0.01 0.01 0.01 0.01 0.01 0.01
0.12 0.12 0.10 0.08 0.10 0.13 0.14 0.13 0.09 0.06 0.03 0.02 0.02 0.02 0.02 0.02 0.02 0.03 0.03 0.02 0.02 0.02 0.02 0.01 0.01 0.01 0.01 0.01 0.01 0.01 0.00 0.01 0.01 0.01 0.01 0.01 0.01 0.01 0.01 0.00 0.00 0.01 0.01
0.11 0.11 0.11 0.09 0.08 0.10 0.11 0.11 0.08 0.06 0.04 0.02 0.01 0.01 0.01 0.01 0.01 0.01 0.01 0.02 0.02 0.01 0.01 0.01 0.01 0.01 0.01 0.01 0.01 0.00 0.00 0.00 0.00 0.00 0.01 0.02 0.02 0.01 0.01 0.00 0.00 0.00 0.01
0.10 0.11 0.11 0.10 0.09 0.08 0.09 0.10 0.09 0.07 0.05 0.03 0.01 0.01 0.01 0.01 0.01 0.01 0.01 0.01 0.01 0.01 0.01 0.01 0.01 0.01 0.01 0.01 0.01 0.01 0.00 0.00 0.01 0.00 0.00 0.01 0.01 0.01 0.01 0.00 0.00 0.00 0.00
0.08 0.09 0.10 0.09 0.09 0.09 0.09 0.08 0.08 0.08 0.05 0.03 0.02 0.01 0.01 0.01 0.00 0.01 0.01 0.01 0.01 0.00 0.00 0.00 0.00 0.01 0.01 0.01 0.01 0.01 0.01 0.01 0.01 0.01 0.00 0.00 0.00 0.01 0.00 0.00 0.00 0.00 0.00
0.07 0.08 0.08 0.08 0.08 0.08 0.09 0.08 0.07 0.08 0.07 0.04 0.02 0.01 0.01 0.01 0.00 0.00 0.01 0.01 0.01 0.01 0.01 0.01 0.01 0.00 0.00 0.00 0.01 0.01 0.01 0.01 0.00 0.00 0.00 0.00 0.00 0.01 0.00 0.00 0.00 0.00 0.00
0.08 0.07 0.07 0.06 0.06 0.06 0.06 0.07 0.07 0.07 0.07 0.07 0.04 0.02 0.02 0.01 0.01 0.01 0.00 0.01 0.01 0.01 0.01 0.01 0.01 0.01 0.00 0.00 0.01 0.01 0.01 0.01 0.00 0.00 0.00 0.00 0.00 0.00 0.00 0.00 0.00 0.00 0.00
0.08 0.07 0.07 0.06 0.05 0.04 0.05 0.05 0.06 0.06 0.07 0.09 0.09 0.06 0.04 0.03 0.03 0.02 0.01 0.01 0.01 0.01 0.01 0.01 0.01 0.01 0.00 0.00 0.00 0.01 0.01 0.01 0.01 0.00 0.00 0.00 0.00 0.00 0.00 0.00 0.00 0.00 0.00
0.10 0.07 0.07 0.06 0.05 0.04 0.04 0.04 0.05 0.05 0.06 0.07 0.09 0.08 0.06 0.04 0.03 0.03 0.02 0.01 0.01 0.01 0.01 0.01 0.01 0.01 0.00 0.00 0.01 0.01 0.01 0.01 0.00 0.00 0.00 0.00 0.00 0.00 0.00 0.00 0.00 0.00 0.00
0.13 0.10 0.07 0.06 0.05 0.04 0.04 0.04 0.05 0.05 0.05 0.05 0.06 0.06 0.06 0.06 0.04 0.03 0.03 0.03 0.02 0.01 0.01 0.01 0.01 0.01 0.00 0.00 0.01 0.01 0.01 0.01 0.01 0.01 0.01 0.00 0.00 0.00 0.00 0.00 0.00 0.00 0.00
0.09 0.12 0.10 0.07 0.06 0.05 0.04 0.04 0.04 0.04 0.04 0.05 0.05 0.05 0.05 0.05 0.05 0.04 0.03 0.03 0.03 0.02 0.02 0.02 0.01 0.01 0.01 0.01 0.01 0.01 0.01 0.01 0.01 0.01 0.00 0.00 0.00 0.00 0.00 0.00 0.00 0.00 0.00
0.05 0.08 0.10 0.09 0.07 0.05 0.05 0.04 0.04 0.03 0.03 0.04 0.04 0.05 0.05 0.05 0.05 0.04 0.03 0.03 0.02 0.02 0.01 0.01 0.01 0.01 0.01 0.01 0.01 0.01 0.01 0.01 0.01 0.00 0.00 0.00 0.00 0.00 0.00 0.00 0.00 0.00 0.00
MSLP
1018.10 1018.64 1019.13 1019.58 1019.98 1020.32 1020.62 1020.88 1021.13 1021.37 1021.62 1021.90 1022.18 1022.47 1022.74 1022.97 1023.15 1023.26 1023.33 1023.35 1023.36 1023.37 1023.40 1023.46 1023.55 1023.65 1023.75 1023.82 1023.85 1023.84 1023.79 1023.73 1023.68 1023.65 1023.67 1023.75 1023.88 1024.04 1024.23 1024.42 1024.59 1024.73 1024.84
1018.02 1018.56 1019.07 1019.56 1020.01 1020.41 1020.76 1021.07 1021.35 1021.60 1021.86 1022.12 1022.39 1022.67 1022.93 1023.17 1023.35 1023.48 1023.55 1023.57 1023.58 1023.58 1023.60 1023.64 1023.70 1023.78 1023.85 1023.89 1023.89 1023.85 1023.78 1023.69 1023.60 1023.56 1023.56 1023.63 1023.76 1023.94 1024.15 1024.37 1024.59 1024.79 1024.96
1017.94 1018.47 1019.01 1019.54 1020.05 1020.52 1020.94 1021.30 1021.62 1021.90 1022.16 1022.42 1022.69 1022.95 1023.20 1023.43 1023.61 1023.74 1023.81 1023.84 1023.83 1023.82 1023.81 1023.83 1023.86 1023.90 1023.95 1023.96 1023.95 1023.89 1023.79 1023.68 1023.57 1023.50 1023.48 1023.52 1023.63 1023.80 1024.02 1024.26 1024.51 1024.76 1025.00
1017.89 1018.42 1018.98 1019.55 1020.11 1020.64 1021.12 1021.55 1021.91 1022.23 1022.51 1022.77 1023.03 1023.28 1023.52 1023.74 1023.92 1024.05 1024.12 1024.14 1024.13 1024.10 1024.06 1024.05 1024.05 1024.06 1024.08 1024.08 1024.05 1023.98 1023.88 1023.75 1023.62 1023.52 1023.46 1023.46 1023.53 1023.66 1023.86 1024.10 1024.38 1024.66 1024.96
1017.89 1018.42 1018.98 1019.58 1020.18 1020.77 1021.31 1021.78 1022.19 1022.54 1022.84 1023.11 1023.37 1023.62 1023.86 1024.08 1024.27 1024.40 1024.48 1024.50 1024.48 1024.43 1024.37 1024.32 1024.29 1024.28 1024.27 1024.26 1024.22 1024.15 1024.05 1023.91 1023.77 1023.62 1023.51 1023.46 1023.46 1023.54 1023.70 1023.91 1024.18 1024.49 1024.83
1017.92 1018.45 1019.02 1019.63 1020.25 1020.87 1021.44 1021.96 1022.41 1022.78 1023.11 1023.40 1023.67 1023.93 1024.19 1024.42 1024.62 1024.77 1024.86 1024.89 1024.87 1024.81 1024.74 1024.66 1024.60 1024.56 1024.54 1024.52 1024.48 1024.41 1024.31 1024.17 1024.00 1023.81 1023.64 1023.51 1023.44 1023.45 1023.53 1023.70 1023.95 1024.27 1024.63
1017.97 1018.50 1019.07 1019.67 1020.30 1020.92 1021.51 1022.05 1022.52 1022.92 1023.27 1023.59 1023.88 1024.17 1024.45 1024.71 1024.95 1025.13 1025.25 1025.30 1025.29 1025.23 1025.14 1025.05 1024.98 1024.92 1024.88 1024.85 1024.82 1024.75 1024.64 1024.49 1024.29 1024.06 1023.82 1023.61 1023.45 1023.36 1023.37 1023.49 1023.70 1024.00 1024.38
1018.03 1018.55 1019.10 1019.69 1020.30 1020.91 1021.50 1022.04 1022.52 1022.95 1023.33 1023.67 1024.00 1024.32 1024.63 1024.94 1025.21 1025.43 1025.59 1025.68 1025.69 1025.65 1025.57 1025.47 1025.39 1025.32 1025.27 1025.24 1025.20 1025.13 1025.02 1024.84 1024.60 1024.32 1024.01 1023.72 1023.47 1023.29 1023.22 1023.27 1023.45 1023.74 1024.13
1018.06 1018.59 1019.13 1019.69 1020.27 1020.86 1021.42 1021.96 1022.45 1022.88 1023.28 1023.65 1024.01 1024.37 1024.73 1025.07 1025.39 1025.66 1025.86 1025.99 1026.04 1026.03 1025.97 1025.89 1025.80 1025.74 1025.69 1025.65 1025.61 1025.53 1025.39 1025.19 1024.91 1024.57 1024.19 1023.82 1023.48 1023.23 1023.09 1023.09 1023.23 1023.51 1023.90
1018.07 1018.61 1019.14 1019.68 1020.23 1020.78 1021.32 1021.84 1022.32 1022.77 1023.18 1023.58 1023.96 1024.35 1024.73 1025.11 1025.47 1025.78 1026.03 1026.20 1026.30 1026.33 1026.30 1026.25 1026.19 1026.14 1026.10 1026.06 1026.00 1025.91 1025.75 1025.51 1025.19 1024.79 1024.34 1023.89 1023.49 1023.17 1022.97 1022.93 1023.06 1023.34 1023.75
1018.08 1018.62 1019.15 1019.67 1020.19 1020.72 1021.24 1021.74 1022.22 1022.66 1023.08 1023.48 1023.88 1024.27 1024.67 1025.07 1025.45 1025.79 1026.08 1026.30 1026.45 1026.53 1026.55 1026.55 1026.52 1026.50 1026.47 1026.44 1026.37 1026.26 1026.07 1025.80 1025.42 1024.97 1024.46 1023.95 1023.49 1023.12 1022.89 1022.84 1022.96 1023.25 1023.68
1018.07 1018.64 1019.18 1019.69 1020.20 1020.71 1021.22 1021.70 1022.17 1022.61 1023.02 1023.42 1023.80 1024.19 1024.58 1024.97 1025.35 1025.71 1026.03 1026.29 1026.49 1026.63 1026.72 1026.77 1026.79 1026.81 1026.81 1026.78 1026.71 1026.58 1026.36 1026.05 1025.62 1025.12 1024.57 1024.01 1023.51 1023.11 1022.87 1022.81 1022.94 1023.24 1023.70
1018.07 1018.67 1019.23 1019.75 1020.26 1020.77 1021.26 1021.75 1022.20 1022.63 1023.03 1023.40 1023.76 1024.12 1024.48 1024.85 1025.21 1025.57 1025.90 1026.20 1026.45 1026.65 1026.80 1026.92 1027.01 1027.07 1027.10 1027.09 1027.02 1026.88 1026.63 1026.28 1025.82 1025.27 1024.68 1024.10 1023.57 1023.16 1022.91 1022.85 1023.00 1023.32 1023.80
1018.07 1018.70 1019.29 1019.83 1020.36 1020.88 1021.38 1021.86 1022.31 1022.73 1023.11 1023.45 1023.78 1024.09 1024.41 1024.73 1025.07 1025.41 1025.75 1026.07 1026.36 1026.62 1026.84 1027.03 1027.18 1027.29 1027.36 1027.37 1027.31 1027.15 1026.89 1026.51 1026.03 1025.46 1024.85 1024.25 1023.71 1023.30 1023.05 1023.00 1023.16 1023.49 1023.98
1018.05 1018.72 1019.34 1019.92 1020.47 1021.01 1021.53 1022.02 1022.47 1022.88 1023.24 1023.55 1023.84 1024.11 1024.37 1024.66 1024.95 1025.27 1025.61 1025.94 1026.27 1026.58 1026.87 1027.12 1027.33 1027.49 1027.59 1027.63 1027.57 1027.42 1027.15 1026.76 1026.27 1025.70 1025.09 1024.49 1023.97 1023.57 1023.33 1023.28 1023.43 1023.76 1024.24
1018.00 1018.70 1019.35 1019.96 1020.55 1021.11 1021.66 1022.16 1022.63 1023.04 1023.38 1023.68 1023.93 1024.16 1024.38 1024.62 1024.89 1025.19 1025.51 1025.86 1026.21 1026.56 1026.89 1027.19 1027.45 1027.65 1027.79 1027.85 1027.81 1027.67 1027.41 1027.03 1026.56 1026.01 1025.43 1024.86 1024.36 1023.98 1023.75 1023.71 1023.85 1024.16 1024.61
1017.89 1018.61 1019.28 1019.92 1020.54 1021.14 1021.71 1022.25 1022.73 1023.15 1023.50 1023.79 1024.02 1024.23 1024.43 1024.64 1024.88 1025.16 1025.47 1025.82 1026.19 1026.56 1026.91 1027.24 1027.53 1027.76 1027.93 1028.01 1028.00 1027.88 1027.66 1027.32 1026.90 1026.40 1025.88 1025.36 1024.91 1024.56 1024.35 1024.31 1024.43 1024.70 1025.11
1017.72 1018.42 1019.10 1019.76 1020.41 1021.04 1021.65 1022.21 1022.73 1023.17 1023.54 1023.84 1024.08 1024.28 1024.47 1024.67 1024.90 1025.16 1025.47 1025.81 1026.18 1026.55 1026.92 1027.26 1027.56 1027.81 1027.99 1028.10 1028.12 1028.05 1027.88 1027.61 1027.26 1026.86 1026.42 1025.99 1025.60 1025.30 1025.12 1025.07 1025.17 1025.40 1025.74
1017.46 1018.13 1018.80 1019.47 1020.14 1020.80 1021.44 1022.05 1022.60 1023.08 1023.48 1023.80 1024.06 1024.28 1024.48 1024.69 1024.91 1025.17 1025.47 1025.80 1026.16 1026.52 1026.87 1027.21 1027.50 1027.76 1027.96 1028.09 1028.15 1028.14 1028.05 1027.88 1027.63 1027.34 1027.01 1026.69 1026.39 1026.15 1026.01 1025.96 1026.04 1026.21 1026.49
1017.13 1017.75 1018.39 1019.06 1019.75 1020.44 1021.11 1021.76 1022.35 1022.87 1023.31 1023.67 1023.97 1024.22 1024.44 1024.66 1024.90 1025.16 1025.44 1025.76 1026.09 1026.42 1026.75 1027.07 1027.35 1027.61 1027.82 1027.98 1028.10 1028.15 1028.15 1028.09 1027.97 1027.81 1027.61 1027.41 1027.21 1027.06 1026.95 1026.92 1026.97 1027.11 1027.31
1016.74 1017.30 1017.91 1018.56 1019.26 1019.97 1020.68 1021.36 1021.99 1022.56 1023.04 1023.45 1023.79 1024.08 1024.33 1024.58 1024.82 1025.08 1025.36 1025.65 1025.95 1026.26 1026.56 1026.84 1027.11 1027.36 1027.59 1027.78 1027.95 1028.09 1028.19 1028.24 1028.25 1028.22 1028.16 1028.08 1027.99 1027.92 1027.87 1027.86 1027.90 1028.00 1028.15
1016.34 1016.82 1017.39 1018.03 1018.73 1019.45 1020.19 1020.90 1021.57 1022.17 1022.70 1023.15 1023.54 1023.86 1024.15 1024.42 1024.68 1024.94 1025.21 1025.48 1025.75 1026.03 1026.29 1026.55 1026.81 1027.05 1027.29 1027.53 1027.75 1027.96 1028.15 1028.32 1028.45 1028.55 1028.61 1028.64 1028.65 1028.66 1028.66 1028.68 1028.72 1028.80 1028.90
1015.95 1016.35 1016.88 1017.50 1018.20 1018.94 1019.69 1020.43 1021.13 1021.76 1022.32 1022.81 1023.24 1023.60 1023.92 1024.22 1024.49 1024.76 1025.01 1025.27 1025.52 1025.76 1026.00 1026.24 1026.49 1026.73 1026.99 1027.26 1027.53 1027.81 1028.08 1028.33 1028.56 1028.76 1028.92 1029.04 1029.14 1029.21 1029.26 1029.31 1029.36 1029.43 1029.51
1015.63 1015.97 1016.45 1017.04 1017.73 1018.47 1019.22 1019.97 1020.68 1021.34 1021.93 1022.45 1022.91 1023.31 1023.66 1023.98 1024.27 1024.54 1024.80 1025.05 1025.28 1025.51 1025.73 1025.96 1026.21 1026.46 1026.74 1027.03 1027.34 1027.66 1027.99 1028.30 1028.59 1028.85 1029.08 1029.26 1029.41 1029.53 1029.62 1029.70 1029.77 1029.85 1029.93
1015.43 1015.69 1016.12 1016.68 1017.34 1018.06 1018.80 1019.55 1020.26 1020.93 1021.54 1022.08 1022.57 1023.01 1023.39 1023.74 1024.06 1024.34 1024.61 1024.86 1025.09 1025.31 1025.54 1025.77 1026.01 1026.28 1026.57 1026.88 1027.22 1027.56 1027.91 1028.25 1028.57 1028.86 1029.11 1029.33 1029.50 1029.65 1029.77 1029.87 1029.97 1030.06 1030.16
1015.37 1015.55 1015.92 1016.42 1017.03 1017.71 1018.42 1019.15 1019.85 1020.52 1021.14 1021.71 1022.23 1022.70 1023.13 1023.51 1023.86 1024.18 1024.46 1024.72 1024.97 1025.20 1025.43 1025.67 1025.93 1026.21 1026.51 1026.84 1027.18 1027.53 1027.88 1028.22 1028.54 1028.82 1029.07 1029.28 1029.46 1029.62 1029.75 1029.87 1029.99 1030.11 1030.24
Thickness
5656 5658 5658 5659 5659 5660 5660 5660 5659 5659 5658 5658 5658 5658 5658 5657 5658 5658 5658 5659 5659 5659 5659 5658 5658 5657 5656 5654 5653 5651 5650 5648 5647 5646 5645 5644 5643 5642 5641 5640 5639 5637 5636
5650 5651 5652 5653 5653 5654 5654 5654 5654 5653 5653 5652 5652 5652 5652 5652 5652 5652 5653 5653 5653 5653 5653 5653 5652 5652 5651 5649 5648 5646 5644 5643 5643 5642 5641 5640 5639 5638 5636 5635 5634 5632 5631
5643 5645 5647 5647 5648 5648 5648 5648 5647 5647 5647 5646 5646 5645 5645 5645 5646 5646 5647 5647 5647 5647 5647 5647 5646 5646 5645 5644 5642 5641 5639 5638 5637 5637 5636 5635 5634 5633 5631 5630 5629 5627 5626
5637 5638 5639 5641 5642 5642 5642 5642 5641 5641 5640 5640 5639 5639 5639 5639 5639 5639 5640 5640 5640 5640 5640 5640 5640 5640 5639 5638 5637 5636 5634 5633 5632 5631 5630 5630 5629 5628 5626 5624 5623 5621 5620
5630 5631 5633 5635 5636 5636 5636 5637 5635 5636 5634 5632 5632 5631 5631 5631 5631 5632 5632 5632 5633 5633 5633 5633 5633 5633 5633 5632 5631 5630 5629 5627 5626 5626 5625 5624 5623 5622 5621 5619 5617 5616 5614
5622 5624 5626 5628 5629 5630 5630 5630 5629 5629 5627 5626 5625 5623 5622 5623 5624 5624 5624 5625 5625 5625 5626 5626 5626 5626 5625 5625 5624 5623 5622 5621 5620 5620 5619 5618 5617 5616 5615 5613 5612 5610 5608
5613 5616 5618 5620 5623 5624 5624 5624 5623 5621 5620 5620 5618 5615 5614 5614 5615 5615 5616 5617 5617 5617 5618 5618 5618 5618 5618 5617 5617 5616 5616 5615 5615 5614 5613 5612 5611 5610 5609 5607 5606 5604 5602
5605 5608 5610 5613 5615 5617 5617 5618 5618 5615 5613 5614 5614 5611 5607 5606 5606 5607 5608 5609 5609 5609 5610 5610 5610 5610 5610 5610 5609 5609 5609 5609 5608 5608 5607 5606 5605 5604 5603 5601 5600 5598 5596
5596 5599 5602 5604 5607 5610 5611 5611 5613 5612 5609 5607 5609 5609 5605 5603 5599 5599 5600 5600 5601 5601 5602 5603 5603 5603 5603 5603 5602 5602 5602 5602 5602 5601 5600 5599 5598 5597 5596 5595 5593 5592 5590
5588 5591 5593 5596 5599 5602 5604 5604 5606 5606 5606 5603 5601 5601 5602 5602 5598 5593 5592 5592 5593 5593 5594 5595 5595 5595 5595 5595 5595 5595 5595 5594 5594 5594 5593 5592 5591 5591 5589 5588 5586 5585 5583
5578 5582 5584 5588 5590 5593 5596 5597 5597 5599 5599 5599 5597 5594 5593 5593 5593 5591 5587 5585 5585 5585 5586 5587 5587 5588 5588 5588 5587 5587 5587 5587 5587 5587 5586 5585 5584 5583 5582 5581 5579 5578 5576
5568 5572 5576 5579 5582 5584 5587 5589 5590 5591 5592 5592 5590 5590 5590 5589 5586 5585 5581 5578 5577 5577 5577 5578 5579 5580 5580 5580 5580 5580 5580 5580 5579 5579 5579 5578 5576 5575 5574 5573 5572 5570 5568
5559 5563 5566 5569 5572 5575 5578 5580 5582 5582 5583 5584 5583 5583 5583 5583 5582 5579 5576 5571 5569 5568 5569 5570 5571 5572 5572 5573 5573 5572 5572 5572 5571 5571 5570 5569 5568 5567 5565 5564 5563 5561 5560
5548 5552 5555 5559 5563 5566 5569 5571 5572 5573 5574 5575 5575 5575 5574 5574 5575 5574 5571 5567 5562 5560 5561 5562 5563 5564 5564 5565 5565 5564 5564 5563 5563 5562 5562 5561 5560 5558 5557 5556 5554 5552 5551
5537 5542 5545 5548 5552 5556 5559 5561 5563 5564 5564 5565 5566 5566 5566 5566 5567 5567 5566 5565 5562 5557 5555 5554 5554 5556 5556 5556 5556 5556 5555 5555 5554 5554 5553 5552 5551 5550 5548 5547 5545 5543 5541
5525 5529 5534 5537 5542 5545 5548 5550 5552 5554 5555 5556 5557 5557 5557 5558 5558 5557 5557 5557 5556 5554 5549 5548 5547 5547 5548 5548 5547 5547 5547 5546 5546 5545 5544 5543 5542 5541 5539 5538 5536 5533 5531
5514 5518 5524 5528 5531 5534 5538 5541 5542 5544 5546 5546 5546 5548 5548 5549 5549 5548 5548 5547 5547 5546 5542 5539 5538 5538 5539 5539 5538 5538 5538 5537 5537 5536 5535 5534 5533 5532 5530 5528 5526 5524 5521
5503 5508 5513 5517 5520 5524 5527 5531 5533 5535 5537 5537 5538 5538 5539 5539 5539 5539 5539 5538 5537 5537 5535 5531 5530 5529 5529 5530 5529 5528 5528 5528 5527 5527 5526 5525 5524 5522 5520 5518 5516 5514 5511
5492 5496 5501 5506 5510 5514 5517 5520 5523 5526 5528 5529 5530 5530 5531 5530 5530 5530 5530 5529 5528 5528 5527 5525 5522 5520 5520 5520 5519 5519 5518 5518 5518 5517 5516 5516 5514 5513 5510 5508 5506 5504 5501
5480 5485 5490 5495 5499 5503 5507 5510 5513 5516 5518 5519 5521 5522 5522 5523 5523 5522 5521 5520 5519 5518 5517 5515 5513 5511 5510 5510 5509 5509 5508 5508 5508 5507 5507 5506 5504 5502 5500 5498 5496 5493 5490
5468 5473 5478 5484 5488 5492 5497 5501 5504 5506 5508 5509 5511 5513 5514 5515 5515 5515 5514 5512 5511 5509 5507 5506 5504 5503 5502 5500 5500 5500 5499 5498 5498 5497 5496 5495 5494 5492 5490 5488 5485 5482 5480
5455 5461 5467 5472 5477 5483 5488 5491 5495 5497 5498 5499 5501 5502 5503 5504 5505 5506 5506 5505 5504 5502 5500 5498 5496 5496 5495 5494 5492 5491 5489 5487 5488 5488 5485 5484 5483 5481 5479 5477 5474 5472 5470
5445 5450 5456 5461 5467 5472 5477 5480 5484 5486 5488 5489 5491 5491 5493 5494 5494 5495 5495 5495 5495 5495 5495 5493 5491 5490 5489 5488 5485 5482 5480 5479 5479 5477 5474 5473 5471 5470 5469 5466 5464 5462 5460
5434 5440 5446 5451 5456 5461 5465 5469 5471 5474 5476 5478 5480 5481 5482 5482 5484 5485 5485 5484 5484 5484 5485 5485 5485 5484 5483 5481 5479 5476 5472 5469 5467 5465 5463 5461 5460 5459 5459 5456 5454 5452 5449
5424 5430 5436 5441 5446 5450 5454 5457 5459 5461 5464 5466 5468 5470 5471 5472 5474 5475 5475 5474 5474 5473 5473 5474 5475 5474 5473 5471 5468 5464 5460 5458 5456 5455 5451 5449 5448 5447 5447 5446 5444 5441 5438
5414 5420 5425 5430 5435 5439 5443 5447 5449 5452 5453 5454 5456 5458 5460 5462 5462 5463 5464 5464 5464 5463 5463 5463 5462 5461 5460 5459 5457 5455 5452 5448 5445 5443 5441 5438 5436 5433 5433 5434 5432 5430 5427